Powrót do katalogu

SL-8 R/B

AktywnyPO
NORAD 18130·ROCKET BODY·🇷🇺 Russia

Wystrzelony Jun 23, 1987 z Plesetsk Cosmodrome

Loading…

Następne Przeloty (najbliższe 24 godziny)

TLE

ŚwieżeSource: Space-Track

Epoka: Sep 14, 2026, 04:54 UTC

1 18130U 87054B   26257.20428476  .00000029  00000-0  14617-4 0  9996
2 18130  82.9268 194.8115 0015442 287.2661  72.6806 13.76992237970371

Śledź SL-8 R/B w czasie rzeczywistym z AllMySat

Download on the App Store